Location: Bats
(43.6587°N, 0.4584°W)
Time: 04:01:15
(UTC+00:00)

RESURS DK-1 - Visible Passes

Search period start: 21 April 2026 00:00
Search period end: 01 May 2026 00:00
Orbit: 525 x 529 km, 69.9° (Epoch: 20 April)

Date Brightness Start Highest point End Pass type
(mag) Time Alt. Az. Time Alt. Az. Time Alt. Az.
21 Apr 4.2 20:23:42 10° WSW 20:27:15 32° WNW 20:30:51 10° N visible
22 Apr 4.4 20:11:52 10° WSW 20:15:23 30° NW 20:18:56 10° N visible
23 Apr 2.7 04:28:47 10° NNW 04:32:45 69° ENE 04:36:41 10° SSE visible
23 Apr 4.5 20:00:02 10° WSW 20:03:31 29° NW 20:07:00 10° N visible
24 Apr 2.5 04:16:53 10° NNW 04:20:52 73° ENE 04:24:48 10° SSE visible
24 Apr 4.7 19:48:13 10° WSW 19:51:38 28° NW 19:55:04 10° N visible
25 Apr 2.4 04:05:00 10° NNW 04:08:58 78° ENE 04:12:55 10° SSE visible
25 Apr 4.8 19:36:23 10° WSW 19:39:45 26° NW 19:43:08 10° N visible
26 Apr 5.9 02:18:44 10° NE 02:19:02 10° NE 02:19:21 10° NE visible
26 Apr 2.3 03:53:05 10° NNW 03:57:04 82° ENE 04:01:02 10° SSE visible
26 Apr 5.0 19:24:33 10° WSW 19:27:52 25° NW 19:31:12 10° N visible
27 Apr 5.8 02:06:19 10° NNE 02:07:11 11° NE 02:08:01 10° ENE visible
27 Apr 2.2 03:41:11 10° NNW 03:45:10 87° ENE 03:49:08 10° SSE visible
28 Apr 5.7 01:54:09 10° NNE 01:55:18 11° NE 01:56:28 10° ENE visible
28 Apr 2.2 03:29:17 10° NNW 03:33:16 88° WSW 03:37:13 10° SSE visible
29 Apr 5.5 01:42:02 10° NNE 01:43:26 12° NE 01:44:50 10° ENE visible
29 Apr 2.1 03:17:22 10° NNW 03:21:21 84° WSW 03:25:19 10° SSE visible
30 Apr 5.4 01:29:57 10° NNE 01:31:33 12° NE 01:33:09 10° ENE visible
30 Apr 2.1 03:05:28 10° NNW 03:09:27 79° WSW 03:13:24 10° SSE visible
